Namest Nad Oslav, Czech Republic

6:31 PM CET on November 15, 2019 (GMT +0100)
Namest

Weather History for LKNA - July, 2019

Change the Weather History Date:

Wednesday, July 31, 2019

  Actual Average (WUND) Record (WUND)
Temperature  
Mean Temperature 71 °F -  
Max Temperature 80 °F - - (-1)
Min Temperature 62 °F - - (-1)
Cooling Degree Days 6    
Growing Degree Days 21 (Base 50)    
Moisture  
Dew Point 62 °F    
Average Humidity 74    
Maximum Humidity 94    
Minimum Humidity 44    
Precipitation  
Precipitation 0.03 in - - ()
Sea Level Pressure  
Sea Level Pressure 29.94 in    
Wind  
Wind Speed 9 mph ()    
Max Wind Speed 18 mph    
Max Gust Speed 28 mph    
Visibility 8.5 miles    
Events Rain    
Averages and records for this station are not official NWS values.
T = Trace of Precipitation, MM = Missing Value Source: Averaged Metar Reports

Daily Weather History Graph

Daily Weather History Graph

Search for Another Location

Airport or City:

Astronomy

Jul. 31, 2019 Rise Set
Actual Time 5:25 AM CEST 8:37 PM CEST
Civil Twilight 4:47 AM CEST 9:14 PM CEST
Nautical Twilight 3:57 AM CEST 10:04 PM CEST
Astronomical Twilight 2:54 AM CEST 11:07 PM CEST
Moon 4:12 AM CEST (7/31) 8:25 PM CEST (7/31)
Length of Visible Light 16h 27m
Length of Day
15h 11m
Waning Crescent, 1% of the Moon is Illuminated
Jul 31
Waning Crescent
Aug 1
New
Aug 7
First Quarter
Aug 15
Full
Aug 23
Last Quarter

Hourly Weather History & Observations

Time (CEST) Temp. Dew Point Humidity Pressure Visibility Wind Dir Wind Speed Gust Speed Precip Events Conditions
12:00 AM 69.8 °F 66.2 °F 88% 29.92 in - West 8.1 mph - N/A   Clear
1:00 AM 69 °F 64 °F 79% 29.88 in 9 mi WNW 8.9 mph - -   Scattered Clouds
1:00 AM 68.0 °F 64.4 °F 88% 29.92 in - WNW 5.8 mph - N/A   Clear
2:00 AM 69 °F 64 °F 79% 29.87 in 9 mi WNW 8.9 mph - -   Scattered Clouds
2:00 AM 68.0 °F 64.4 °F 88% 29.92 in - WNW 8.1 mph - N/A   Clear
3:00 AM 67 °F 64 °F 86% 29.88 in 9 mi WNW 11.2 mph - -   Scattered Clouds
3:00 AM 66.2 °F 64.4 °F 94% 29.92 in - WNW 10.4 mph - N/A   Clear
4:00 AM 67 °F 64 °F 86% 29.87 in 6 mi WNW 8.9 mph - -   Partly Cloudy
4:00 AM 66.2 °F 64.4 °F 94% 29.92 in - WNW 9.2 mph - N/A   Clear
5:00 AM 66 °F 64 °F 90% 29.88 in 6 mi WNW 6.7 mph - -   Mostly Cloudy
5:00 AM 66.2 °F 64.4 °F 94% 29.92 in - West 4.6 mph - N/A   Clear
6:00 AM 67 °F 63 °F 83% 29.89 in 6 mi NW 8.9 mph - -   Mostly Cloudy
6:00 AM 68.0 °F 64.4 °F 88% 29.92 in - NW 8.1 mph - N/A   Clear
7:00 AM 68.0 °F 62.6 °F 83% 29.95 in - NNW 8.1 mph - N/A   Clear
8:00 AM 68 °F 63 °F 80% 29.91 in 9 mi NW 6.7 mph - -   Scattered Clouds
8:00 AM 69.8 °F 64.4 °F 83% 29.95 in - NW 5.8 mph - N/A   Clear
9:00 AM 71.6 °F 64.4 °F 78% 29.98 in - NW 10.4 mph - N/A   Clear
10:00 AM 74 °F 62 °F 59% 29.91 in 12 mi NNW 8.9 mph - -   Scattered Clouds
11:00 AM 77 °F 61 °F 48% 29.90 in 12 mi WNW 13.4 mph - -   Partly Cloudy
11:00 AM 77.0 °F 62.6 °F 61% 29.98 in 6.2 mi WNW 12.7 mph - N/A   Mostly Cloudy
11:28 AM 78.8 °F 59.0 °F 51% 29.98 in 6.2 mi NNW 9.2 mph - N/A Rain Light Rain Showers
12:00 PM 77.0 °F 59.0 °F 54% 29.98 in 6.2 mi NW 6.9 mph - N/A   Mostly Cloudy
12:38 PM 78.8 °F 59.0 °F 51% 29.95 in 6.2 mi NW 10.4 mph - N/A Rain Light Rain Showers
1:00 PM 79 °F 61 °F 44% 29.88 in 16 mi WNW 8.9 mph - - Rain Light Rain Showers
1:00 PM 78.8 °F 60.8 °F 54% 29.95 in 6.2 mi NW 8.1 mph - N/A Rain Light Rain Showers
1:10 PM 77.0 °F 60.8 °F 57% 29.95 in 6.2 mi WNW 10.4 mph - N/A   Mostly Cloudy
2:00 PM 79 °F 62 °F 47% 29.87 in 16 mi WNW 8.9 mph - - Rain Light Rain Showers
3:00 PM 78.8 °F 55.4 °F 44% 29.95 in 6.2 mi NW 12.7 mph - N/A   Mostly Cloudy
3:11 PM 77.0 °F 59.0 °F 54% 29.95 in 6.2 mi WNW 15.0 mph 27.6 mph N/A Rain Light Rain Showers
4:00 PM 70 °F 60 °F 64% 29.92 in 16 mi West 11.2 mph - - Rain Light Rain Showers
4:00 PM 71.6 °F 60.8 °F 69% 29.98 in 6.2 mi West 11.5 mph - N/A Rain Light Rain Showers
5:00 PM 73.4 °F 60.8 °F 65% 29.98 in 6.2 mi NW 12.7 mph - N/A   Mostly Cloudy
5:47 PM 69.8 °F 60.8 °F 73% 29.98 in 6.2 mi NW 16.1 mph - N/A Rain Light Rain Showers
6:00 PM 69 °F 61 °F 68% 29.94 in 9 mi NW 15.7 mph - - Rain Light Rain Showers
6:00 PM 69.8 °F 62.6 °F 78% 29.98 in 6.2 mi NW 16.1 mph - N/A Rain Light Rain Showers
7:00 PM 69 °F 62 °F 71% 29.93 in 12 mi WNW 15.7 mph - - Rain Light Rain Showers
7:00 PM 68.0 °F 64.4 °F 88% 29.98 in 6.2 mi NW 12.7 mph - N/A   Mostly Cloudy
8:00 PM 67 °F 60 °F 73% 29.96 in 12 mi NW 17.9 mph - -   Partly Cloudy
8:00 PM 68.0 °F 60.8 °F 78% 30.01 in 6.2 mi NW 18.4 mph - N/A   Mostly Cloudy
9:00 PM 65 °F 60 °F 78% 29.98 in 12 mi NNW 11.2 mph - -   Mostly Cloudy
9:00 PM 66.2 °F 60.8 °F 83% 30.01 in - NNW 11.5 mph - N/A   Clear
10:00 PM 66.2 °F 60.8 °F 83% 30.04 in 6.2 mi WNW 13.8 mph - N/A Rain Light Rain
11:00 PM 62 °F 60 °F 93% 30.03 in 9 mi West 6.7 mph - - Rain Light Rain
11:00 PM 62.6 °F 60.8 °F 94% 30.06 in - West 8.1 mph - N/A   Clear